Weather History for CWWX - January, 2013

Change the Weather History Date:

Saturday, January 26, 2013

  Actual Average Record
Temperature  
Mean Temperature 22 °F -  
Max Temperature 24 °F - - ()
Min Temperature 19 °F - - ()
Degree Days  
Heating Degree Days 44    
Moisture  
Dew Point 18 °F    
Average Humidity 82    
Maximum Humidity 93    
Minimum Humidity 56    
Precipitation  
Precipitation 0.00 in - - ()
Sea Level Pressure  
Sea Level Pressure 30.19 in    
Wind  
Wind Speed - ()    
Max Wind Speed -    
Max Gust Speed -    
T = Trace of Precipitation, MM = Missing Value Source: Averaged Metar Reports

Daily Weather History Graph

Daily Weather History Graph

Search for Another Location

Airport or City:

Trip Planner

Search our weather history database for the weather conditions in past years. The results will help you decide how hot, cold, wet, or windy it might be!

Date:

Astronomy

Jan. 26, 2013 Rise Set
Actual Time 7:53 AM EST 5:25 PM EST
Civil Twilight 7:21 AM EST 5:57 PM EST
Nautical Twilight 6:46 AM EST 6:33 PM EST
Astronomical Twilight 6:11 AM EST 7:08 PM EST
Moon 5:21 PM EST (1/26) 7:09 AM EST (1/26)
Length of Visible Light 10h 36m
Length of Day
9h 32m
Full, 100% of the Moon is Illuminated
Jan 26
Full
Jan 26
Full
Feb 3
Last Quarter
Feb 10
New
Feb 17
First Quarter

Hourly Weather History & Observations

Time (EST) Temp. Dew Point Humidity Pressure Visibility Wind Dir Wind Speed Gust Speed Precip Events Conditions
12:00 AM 19.8 °F 18.1 °F 93% 30.02 in - North - - N/A   Unknown
1:00 AM 20 °F 18 °F 89% 30.01 in - Calm Calm - -  
1:00 AM 19.8 °F 18.1 °F 93% 30.01 in - North - - N/A   Unknown
2:00 AM 20.5 °F 18.9 °F 93% 30.01 in - North - - N/A   Unknown
3:00 AM 24.1 °F 20.7 °F 87% 30.02 in - North - - N/A   Unknown
4:00 AM 24.4 °F 19.0 °F 80% 30.04 in - North - - N/A   Unknown
5:00 AM 23.7 °F 19.0 °F 82% 30.05 in - North - - N/A   Unknown
6:00 AM 23.9 °F 19.0 °F 82% 30.06 in - North - - N/A   Unknown
7:00 AM 24 °F 22 °F 86% 30.09 in - Calm Calm - -  
7:00 AM 24.3 °F 21.6 °F 89% 30.09 in - North - - N/A   Unknown
8:00 AM 24.4 °F 22.3 °F 91% 30.10 in - North - - N/A   Unknown
9:00 AM 24.1 °F 21.7 °F 91% 30.12 in - North - - N/A   Unknown
10:00 AM 22.8 °F 20.3 °F 90% 30.15 in - North - - N/A   Unknown
11:00 AM 23.5 °F 20.7 °F 89% 30.19 in - North - - N/A   Unknown
12:00 PM 23.4 °F 19.9 °F 87% 30.21 in - North - - N/A   Unknown
1:00 PM 22 °F 19 °F 84% 30.24 in - Calm Calm - -  
1:00 PM 22.3 °F 19.2 °F 88% 30.24 in - North - - N/A   Unknown
2:00 PM 23.0 °F 17.8 °F 80% 30.24 in - North - - N/A   Unknown
3:00 PM 23.7 °F 18.5 °F 80% 30.27 in - North - - N/A   Unknown
5:00 PM 22.8 °F 14.4 °F 70% 30.31 in - North - - N/A   Unknown
6:00 PM 21.6 °F 14.7 °F 75% 30.34 in - North - - N/A   Unknown
7:00 PM 22 °F 13 °F 56% 30.36 in - Calm Calm - -  
7:00 PM 21.6 °F 12.7 °F 69% 30.36 in - North - - N/A   Unknown
8:00 PM 21.2 °F 11.8 °F 67% 30.38 in - North - - N/A   Unknown
9:00 PM 20.8 °F 12.9 °F 71% 30.38 in - North - - N/A   Unknown
10:00 PM 21.0 °F 15.3 °F 78% 30.40 in - North - - N/A   Unknown
11:00 PM 21.2 °F 14.0 °F 74% 30.41 in - North - - N/A   Unknown